Tracking 18980 objects as of 18-Feb-2018
HD Live streaming from Space Station
objects crossing your sky now

NOAA 16 DEB

Track NOAA 16 DEB now!
10-day predictions


NORAD ID: 41664
Int'l Code: 2000-055PD
Perigee: 824.9 km
Apogee: 851.3 km
Inclination: 98.9 °
Period: 101.5 minutes
Semi major axis: 7209 km
RCS: Unknown
Launch date: September 21, 2000
Source: United States (US)
Launch site: AIR FORCE WESTERN TEST RANGE (AFWTR)

Note: This is SATELLITE DEBRIS
aabbcc
Your satellite tracking list
Your tracking list is empty




NASA's NSSDC Master Catalog

Two Line Element Set (TLE):
1 41664U 00055PD  18047.46800619 +.00001421 +00000-0 +71044-3 0  9992
2 41664 098.9163 131.2861 0018316 266.2106 093.6974 14.18335719094264
Source of the keplerian elements: AFSPC